STARLINK-32408, 62054

Orbit data source: Space-Track

STARLINK-32408, 62054 is a payload satellite owned by SpaceX/Seattle (US) in LEO that was launched on Thu, 21 Nov 2024 UTC via an FALCON 9 launch vehicle from the Air Force Eastern Test Range (AFETR). Payloads include a variety of satellites, spacecraft, and rockets equipped with specific instruments for various scientific and technological missions. These include communications satellites like Starlink; space stations such as the ISS; scientific satellites like the Hubble; Earth observation satellites from companies like Planet Labs, Umbra, and HawkEye 360; GPS; miniature CubeSats for education and research; and military/defense satellites.

Loading next visibility...
STARLINK-32408 details
Identifier
62054, 2024-216Y
Orbit
LEO
Last TLE update11 hours ago
Origin
Flag of USSpaceX/Seattle (US)
ManufacturerSpaceX/Seattle
MissionOperational spacecraft
Bus & MotorSTARLINK V2M, Unknown motor
Mass730 kg wet, ~700 kg dry
Launch date (UTC)
2024-11-21 (3 weeks ago)
Launch vehicle
FALCON 9
Launch site
Air Force Eastern Test Range (AFETR)
Object type
Payload
Rocket body
Debris
Shape & HBRUnknown
Radar Cross SectionLarge (>1 m²)

Expand to show TLE details & history

TLE from 11 hours ago
0 STARLINK-32408
1 62054U 24216Y   24348.50002315 -.00564464  00000-0 -10253-1 0  9992
2 62054  42.9996 307.3150 0001040 266.8329 227.4677 15.50784947  3444
Epoch: 2024-12-13T12:00Z
Definitive object data (Epoch: 2024-12-13T12:00:02Z)
Latitude29.33079°
Longitude-172.17057°
Altitude415.37 km
Speed7.666 km/s
True Right ascension06h 02m 00s
True Declination29° 10' 36"
Sunlit
Object was in full shadow at TLE epoch
Visualization TLE readout
Latitude23.47503°
Longitude-165.5965°
Altitude416.137 km
Speed7.665 km/s
Apparent Right ascension07h 45m 02s
Apparent Declination-7° 36' 11"
Sunlit
Object is in full shadow
Visualization observer readout
Local Sidereal Time21:23:56
Azimuth41.04° NE
Elevation-50.846°
Doppler factor1
Orbital elements
Apogee altitude417.104 km
Perigee altitude415.691 km
Semi-major axis6,794.535 km
Eccentricity0.000104
Inclination42.9996°
RAAN307.315°
Arg. of periapsis266.8329°
True anomaly227.45892°
Mean anomaly227.4677°
Eccentric anomaly227.46331°
Mean motion3.87528 °/min
BSTAR-0.010253
Orbital period92.9 mins
Loading maneuver chart data...
Loading historical data...
Loading historical data...
Loading historical data...
Loading historical data...
Loading historical data...
Loading historical data...
Loading historical data...

STARLINK-32408 Visibility forecast

Observer location: undefined°, undefined

Span
Click to sort rows by Start time (UTC) header in descending order
Start Az.
Max El. time (UTC)
Max El. Az.
Max El.
End time (UTC)
End Az.
4 mins2024-12-14 01:35:58.010Z234.418° WSW2024-12-14 01:36:58.010Z210.378° SW40.546°2024-12-14 01:39:58.010Z76.093° E
5 mins2024-12-14 03:12:58.010Z286.469° WNW2024-12-14 03:14:58.010Z354.865° N37.187°2024-12-14 03:17:58.010Z70.974° E
5 mins2024-12-14 04:50:58.010Z297.29° NW2024-12-14 04:52:58.010Z46.609° ENE40.987°2024-12-14 04:55:58.010Z95.902° ESE
4 mins2024-12-14 06:28:58.010Z247.707° W2024-12-14 06:29:58.010Z211.654° SW29.118°2024-12-14 06:32:58.010Z143.609° SSE
|